Time+07,TemperatureF,Dew PointF,Humidity,Sea Level PressureIn,VisibilityMPH,Wind Direction,Wind SpeedMPH,Gust SpeedMPH,PrecipitationIn,Events,Conditions,WindDirDegrees,DateUTC
12:00 AM,82.4,75.2,79,29.86,5.0,Calm,Calm,-,N/A,,Partly Cloudy,0,2013-09-01 17:00:00
12:30 AM,82.4,75.2,79,29.83,5.0,Calm,Calm,-,N/A,,Partly Cloudy,0,2013-09-01 17:30:00
1:00 AM,82.4,75.2,79,29.83,5.0,Calm,Calm,-,N/A,,Partly Cloudy,0,2013-09-01 18:00:00
7:00 AM,78.8,77.0,94,29.83,5.6,Variable,2.3,-,N/A,,Scattered Clouds,0,2013-09-02 00:00:00
7:30 AM,78.8,77.0,94,29.86,5.6,Variable,2.3,-,N/A,,Scattered Clouds,0,2013-09-02 00:30:00
8:00 AM,80.6,77.0,89,29.86,5.6,Variable,2.3,-,N/A,,Scattered Clouds,0,2013-09-02 01:00:00
8:30 AM,82.4,77.0,84,29.86,6.2,Calm,Calm,-,N/A,,Scattered Clouds,0,2013-09-02 01:30:00
9:00 AM,84.2,77.0,79,29.86,6.2,Variable,2.3,-,N/A,,Scattered Clouds,0,2013-09-02 02:00:00
9:30 AM,84.2,77.0,79,29.86,6.2,Variable,1.2,-,N/A,,Scattered Clouds,0,2013-09-02 02:30:00
10:00 AM,84.2,77.0,79,29.86,6.2,Variable,1.2,-,N/A,,Scattered Clouds,0,2013-09-02 03:00:00
10:30 AM,84.2,78.8,84,29.86,6.2,ESE,4.6,-,N/A,,Scattered Clouds,120,2013-09-02 03:30:00
11:00 AM,84.2,77.0,79,29.86,6.2,ESE,4.6,-,N/A,,Scattered Clouds,110,2013-09-02 04:00:00
11:30 AM,86.0,77.0,74,29.86,6.2,Variable,3.5,-,N/A,,Partly Cloudy,0,2013-09-02 04:30:00
12:00 PM,87.8,77.0,70,29.83,6.2,Variable,2.3,-,N/A,,Partly Cloudy,0,2013-09-02 05:00:00
12:30 PM,87.8,77.0,70,29.83,6.2,Variable,1.2,-,N/A,,Partly Cloudy,0,2013-09-02 05:30:00
1:00 PM,89.6,77.0,66,29.80,6.2,Variable,1.2,-,N/A,,Partly Cloudy,0,2013-09-02 06:00:00
1:30 PM,89.6,75.2,62,29.80,6.2,Variable,1.2,-,N/A,,Partly Cloudy,0,2013-09-02 06:30:00
2:00 PM,91.4,75.2,59,29.77,6.2,Variable,2.3,13.8,N/A,,Partly Cloudy,0,2013-09-02 07:00:00
2:30 PM,91.4,75.2,59,29.77,6.2,Variable,2.3,-,N/A,,Partly Cloudy,0,2013-09-02 07:30:00
3:00 PM,91.4,73.4,55,29.74,6.2,Variable,3.5,-,N/A,,Partly Cloudy,0,2013-09-02 08:00:00
3:30 PM,91.4,75.2,59,29.74,6.2,Calm,Calm,-,N/A,,Partly Cloudy,0,2013-09-02 08:30:00
4:00 PM,91.4,75.2,59,29.74,6.2,Variable,3.5,-,N/A,,Partly Cloudy,0,2013-09-02 09:00:00
4:30 PM,89.6,75.2,62,29.74,6.2,Variable,2.3,-,N/A,,Partly Cloudy,0,2013-09-02 09:30:00
5:00 PM,89.6,75.2,62,29.74,6.2,Calm,Calm,-,N/A,,Partly Cloudy,0,2013-09-02 10:00:00
5:30 PM,84.2,75.2,74,29.77,6.2,NE,11.5,-,N/A,,Partly Cloudy,50,2013-09-02 10:30:00
6:00 PM,84.2,75.2,74,29.77,6.2,NE,11.5,-,N/A,,Partly Cloudy,50,2013-09-02 11:00:00
6:30 PM,82.4,75.2,79,29.80,5.6,Calm,Calm,-,N/A,,Partly Cloudy,0,2013-09-02 11:30:00
7:00 PM,82.4,73.4,74,29.80,5.6,Calm,Calm,-,N/A,,Partly Cloudy,0,2013-09-02 12:00:00
7:30 PM,80.6,73.4,79,29.80,5.6,Calm,Calm,-,N/A,,Scattered Clouds,0,2013-09-02 12:30:00
8:00 PM,80.6,73.4,79,29.80,5.6,Calm,Calm,-,N/A,,Scattered Clouds,0,2013-09-02 13:00:00
8:30 PM,80.6,73.4,79,29.83,5.6,Calm,Calm,-,N/A,,Scattered Clouds,0,2013-09-02 13:30:00
9:00 PM,80.6,75.2,84,29.86,5.6,Calm,Calm,-,N/A,,Scattered Clouds,0,2013-09-02 14:00:00
9:30 PM,82.4,75.2,79,29.86,5.6,Calm,Calm,-,N/A,,Scattered Clouds,0,2013-09-02 14:30:00
10:00 PM,82.4,75.2,79,29.86,5.6,Calm,Calm,-,N/A,,Scattered Clouds,0,2013-09-02 15:00:00
10:30 PM,82.4,75.2,79,29.83,5.6,Calm,Calm,-,N/A,,Scattered Clouds,0,2013-09-02 15:30:00
11:00 PM,82.4,75.2,79,29.83,5.6,Calm,Calm,-,N/A,,Scattered Clouds,0,2013-09-02 16:00:00
11:30 PM,82.4,75.2,79,29.83,5.6,Calm,Calm,-,N/A,,Scattered Clouds,0,2013-09-02 16:30:00